{"data":{"norad_id":47814,"intl_designator":"2021-018AD","name":"STARLINK-2395","alt_names":[],"object_type":"PAYLOAD","status":"ACTIVE","operator":null,"country":"US","launch_date":"2021-03-11","launch_site_code":"AFETR","launch_vehicle":null,"mission":null,"orbit_class":"UNKNOWN","rcs_meters":null,"size_class":null,"mass_kg":null,"dimensions":null,"purposes":["comms"],"wikipedia_slug":null,"has_3d_model":false,"image_url":null,"decayed_at":null,"tle_current":{"epoch":"2026-09-20T01:51:39.343680Z","epoch_age_seconds":62343,"freshness":"FRESH","line1":"1 47814U 21018AD  26263.07753870  .00033862  00000+0  98530-3 0  9991","line2":"2 47814  53.1574  57.5487 0000119 175.1646 184.9358 15.35143328306583","mean_motion":15.35143328,"eccentricity":1.19e-5,"inclination_deg":53.1574,"raan_deg":57.5487,"arg_perigee_deg":175.1646,"mean_anomaly_deg":184.9358,"bstar":0.0009853,"rev_number":30658,"period_min":93.802316287695,"perigee_km":460.41342454888,"apogee_km":460.57618398582,"semimajor_km":6838.6318042673,"source":"CELESTRAK","updated_at":"2026-09-20T09:00:38.748562Z"}}}